CW7520 Weather Reports


Display with metric or nautical units.
time (UTC)temp
F
wind
direction
speed
MPH
gust
MPH
rain 1hr
in
rain 24hr
in
rain mn
in
humidity
%
barometer
mb
20260507194505 56 0 0.0 0.0 0.00 0.32 0.00 83 1020.4
20260507193605 56 0 0.0 0.0 0.00 0.34 0.00 84 1020.3
20260507192915 56 0 0.0 0.0 0.00 0.34 0.00 84 1020.2
20260507192012 56 0 0.0 0.0 0.00 0.34 0.00 84 1020.3
20260507190905 56 0 0.0 0.0 0.00 0.34 0.00 84 1020.2
20260507190005 56 0 0.0 0.0 0.00 0.36 0.00 84 1020.1
20260507185403 56 0 0.0 0.0 0.00 0.37 0.00 84 1020.2
20260507184714 56 0 0.0 0.0 0.00 0.38 0.00 84 1020.1
20260507183605 56 0 0.0 0.0 0.00 0.42 0.00 84 1020.1
20260507182703 56 0 0.0 0.0 0.00 0.42 0.00 84 1020.0
20260507181803 56 0 0.0 0.0 0.00 0.42 0.00 83 1019.9
20260507180905 55 0 0.0 0.0 0.00 0.42 0.00 83 1019.8
20260507180219 55 0 0.0 0.0 0.00 0.42 0.00 83 1019.8
20260507175403 55 0 0.0 0.0 0.00 0.42 0.00 83 1019.7
20260507174503 55 0 0.0 0.0 0.00 0.42 0.00 84 1019.6
20260507173605 55 0 0.0 0.0 0.00 0.42 0.00 83 1019.8
20260507172703 55 0 0.0 0.0 0.00 0.42 0.00 83 1019.7
20260507171804 55 0 0.0 0.0 0.00 0.42 0.00 83 1019.7
20260507170903 55 0 0.0 0.0 0.00 0.42 0.00 83 1019.7
20260507170219 55 0 0.0 0.0 0.00 0.42 0.00 83 1019.7
20260507165403 55 0 0.0 0.0 0.00 0.42 0.00 83 1019.7
20260507164503 55 0 0.0 0.0 0.00 0.42 0.00 83 1019.8
20260507163603 54 0 0.0 0.0 0.00 0.42 0.00 83 1019.9
20260507162703 54 0 0.0 0.0 0.00 0.42 0.00 83 1019.8
20260507161803 54 0 0.0 0.0 0.00 0.42 0.00 83 1019.8
20260507161113 54 0 0.0 0.0 0.00 0.42 0.00 83 1019.8
20260507160003 54 0 0.0 0.0 0.00 0.42 0.00 83 1019.9
20260507155614 54 0 0.0 0.0 0.00 0.42 0.00 83 1020.0
20260507154504 54 0 0.0 0.0 0.00 0.42 0.00 83 1020.0
20260507153603 54 0 0.0 0.0 0.00 0.42 0.00 83 1020.1
20260507152914 54 0 0.0 0.0 0.00 0.42 0.00 83 1020.2
20260507151805 54 0 0.0 0.0 0.00 0.42 0.00 83 1020.2
20260507151114 54 0 0.0 0.0 0.00 0.42 0.00 83 1020.3
20260507150214 54 0 0.0 0.0 0.00 0.42 0.00 83 1020.5
20260507145404 54 0 0.0 0.0 0.00 0.42 0.00 83 1020.5
20260507144503 53 0 0.0 0.0 0.00 0.42 0.00 83 1020.6
20260507143814 53 0 0.0 0.0 0.00 0.42 0.00 83 1020.6
20260507142915 53 0 0.0 0.0 0.00 0.42 0.00 83 1020.7
20260507141810 53 0 0.0 0.0 0.00 0.42 0.00 84 1020.7
20260507140903 53 0 0.0 0.0 0.00 0.42 0.00 83 1020.8
20260507140213 53 0 0.0 0.0 0.00 0.42 0.00 83 1020.8
20260507135408 53 0 0.0 0.0 0.00 0.42 0.42 83 1020.9
20260507134510 52 0 0.0 0.0 0.01 0.42 0.42 84 1020.9
20260507133604 52 0 0.0 0.0 0.01 0.42 0.42 84 1021.0
20260507132703 52 0 0.0 0.0 0.01 0.42 0.42 84 1021.1
20260507131808 52 0 0.0 0.0 0.01 0.42 0.42 84 1021.4
20260507130908 52 0 0.0 0.0 0.01 0.42 0.42 83 1021.5
20260507130004 52 0 0.0 0.0 0.01 0.42 0.42 83 1021.5
20260507125408 52 0 0.0 0.0 0.01 0.42 0.42 83 1021.6
20260507124503 52 0 0.0 0.0 0.00 0.41 0.41 82 1021.6
20260507123608 52 0 0.0 0.0 0.00 0.41 0.41 81 1021.7
20260507122708 52 0 0.0 0.0 0.00 0.41 0.41 81 1021.9
20260507121803 52 0 0.0 0.0 0.00 0.41 0.41 81 1021.9
20260507120903 52 0 0.0 0.0 0.00 0.41 0.41 81 1021.9
20260507120008 52 0 0.0 0.0 0.00 0.41 0.41 82 1022.0
20260507115414 52 0 0.0 0.0 0.00 0.41 0.41 82 1022.0
20260507114508 52 0 0.0 0.0 0.00 0.41 0.41 82 1021.9
20260507113613 51 0 0.0 0.0 0.00 0.41 0.41 83 1022.0
20260507112703 51 0 0.0 0.0 0.00 0.41 0.41 83 1022.0
20260507111808 51 0 0.0 0.0 0.00 0.41 0.41 83 1022.0
20260507110908 51 0 0.0 0.0 0.00 0.41 0.41 83 1021.9
20260507110003 51 0 0.0 0.0 0.00 0.41 0.41 83 1022.0
20260507105408 52 0 0.0 0.0 0.00 0.41 0.41 83 1022.1
20260507104508 52 0 0.0 0.0 0.00 0.41 0.41 82 1022.2
20260507103608 52 0 0.0 0.0 0.01 0.42 0.41 82 1022.3
20260507102914 52 0 0.0 0.0 0.01 0.42 0.41 81 1022.4
20260507101808 52 0 0.0 0.0 0.01 0.42 0.41 79 1022.6
20260507101115 53 0 0.0 0.0 0.01 0.42 0.41 78 1022.5
20260507100004 53 0 0.0 0.0 0.01 0.43 0.41 76 1022.4
20260507095403 53 0 0.0 0.0 0.01 0.43 0.41 75 1022.4
20260507094723 53 0 0.0 0.0 0.01 0.43 0.41 74 1022.3
20260507093814 53 0 0.0 0.0 0.01 0.43 0.41 74 1022.3
20260507092703 53 0 0.0 0.0 0.00 0.56 0.40 74 1022.4
20260507091808 53 0 0.0 0.0 0.00 0.56 0.40 74 1022.3
20260507090903 53 0 0.0 0.0 0.00 0.56 0.40 74 1022.2
20260507090004 53 0 0.0 0.0 0.00 0.57 0.40 73 1022.2
20260507085403 53 0 0.0 0.0 0.00 0.57 0.40 73 1022.1
20260507084719 53 0 0.0 0.0 0.00 0.58 0.40 74 1022.1
20260507083603 53 0 0.0 0.0 0.00 0.61 0.40 73 1022.1
20260507082708 53 0 0.0 0.0 0.00 0.69 0.40 73 1022.0
20260507082014 53 0 0.0 0.0 0.00 0.69 0.40 73 1021.9
20260507080908 53 0 0.0 0.0 0.00 0.70 0.40 73 1021.8
20260507080004 53 0 0.0 0.0 0.00 0.70 0.40 74 1021.8
20260507075408 53 0 0.0 0.0 0.00 0.70 0.40 73 1021.8
20260507074503 53 0 0.0 0.0 0.00 0.70 0.40 73 1021.7
20260507073603 53 0 0.0 0.0 0.00 0.70 0.40 73 1021.7
20260507072703 53 0 0.0 0.0 0.00 0.70 0.40 73 1021.7
20260507071803 53 0 0.0 0.0 0.00 0.70 0.40 74 1021.7
20260507070903 53 0 0.0 0.0 0.00 0.70 0.40 75 1021.5
20260507070007 54 0 0.0 0.0 0.00 0.70 0.40 75 1021.5
20260507065403 54 0 0.0 0.0 0.00 0.70 0.40 74 1021.6
20260507064504 54 0 0.0 0.0 0.00 0.70 0.40 72 1021.6
20260507063608 54 0 0.0 0.0 0.00 0.70 0.40 72 1021.5
20260507062708 54 0 0.0 0.0 0.00 0.70 0.40 72 1021.7
20260507061808 54 0 0.0 0.0 0.00 0.70 0.40 76 1021.8
20260507060903 54 0 0.0 0.0 0.00 0.70 0.40 76 1021.9
20260507060008 54 0 0.0 0.0 0.00 0.70 0.40 77 1021.7
20260507055403 54 0 0.0 0.0 0.00 0.70 0.40 77 1021.8
20260507054503 54 0 0.0 0.0 0.00 0.70 0.40 77 1021.7
20260507053608 54 0 0.0 0.0 0.00 0.70 0.40 76 1021.8
20260507052703 54 0 0.0 0.0 0.00 0.70 0.40 76 1021.8
20260507051808 54 0 0.0 0.0 0.00 0.70 0.40 74 1021.7
20260507050908 54 0 0.0 0.0 0.00 0.70 0.40 73 1021.6
20260507050008 54 0 0.0 0.0 0.00 0.70 0.40 73 1021.6
20260507045403 53 0 0.0 0.0 0.00 0.70 0.40 74 1021.6
20260507044503 53 0 0.0 0.0 0.00 0.70 0.40 75 1021.7
20260507043603 53 0 0.0 0.0 0.00 0.70 0.40 76 1021.7
20260507042708 53 0 0.0 0.0 0.01 0.70 0.40 79 1021.7
20260507041808 53 0 0.0 0.0 0.02 0.70 0.40 81 1021.7
20260507040903 53 0 0.0 0.0 0.02 0.70 0.40 83 1021.7
20260507040004 52 0 0.0 0.0 0.02 0.70 0.40 85 1021.6
20260507035413 52 0 0.0 0.0 0.02 0.70 0.40 85 1021.8
20260507034508 51 0 0.0 0.0 0.02 0.70 0.40 84 1021.8
20260507033608 51 0 0.0 0.0 0.03 0.70 0.40 83 1022.0
20260507032708 52 0 0.0 0.0 0.02 0.69 0.39 81 1022.2
20260507031803 52 0 0.0 0.0 0.01 0.68 0.38 78 1022.1
20260507030908 53 0 0.0 0.0 0.01 0.68 0.38 78 1021.9
20260507030009 52 0 0.0 0.0 0.01 0.68 0.38 81 1021.9
20260507025623 52 0 0.0 0.0 0.01 0.68 0.38 81 1022.1
20260507024503 51 0 0.0 0.0 0.01 0.68 0.38 80 1022.0
20260507023818 51 0 0.0 0.0 0.00 0.67 0.37 82 1022.1
20260507022708 51 0 0.0 0.0 0.00 0.67 0.37 81 1022.2
20260507021804 51 0 0.0 0.0 0.01 0.67 0.37 83 1022.2
20260507020903 50 0 0.0 0.0 0.01 0.67 0.37 86 1022.1
20260507020213 49 0 0.0 0.0 0.01 0.67 0.37 88 1022.2
20260507015403 48 0 0.0 0.0 0.01 0.67 0.37 89 1022.1
20260507014508 48 0 0.0 0.0 0.02 0.67 0.37 89 1022.3
20260507013608 47 0 0.0 0.0 0.02 0.67 0.37 88 1022.3
20260507012703 47 0 0.0 0.0 0.04 0.67 0.37 88 1022.6
20260507012018 47 0 0.0 0.0 0.05 0.67 0.37 88 1022.5
20260507010903 47 0 0.0 0.0 0.04 0.66 0.36 88 1022.4
20260507010003 46 0 0.0 0.0 0.05 0.66 0.36 88 1022.1
20260507005403 46 0 0.0 0.0 0.06 0.66 0.36 88 1021.9
20260507004503 46 0 0.0 0.0 0.07 0.65 0.35 88 1022.3
20260507003813 46 0 0.0 0.0 0.07 0.65 0.35 88 1022.4
20260507002713 46 0 0.0 0.0 0.05 0.63 0.33 88 1022.6
20260507001803 46 0 0.0 0.0 0.04 0.62 0.32 89 1022.2
20260507001119 46 0 0.0 0.0 0.05 0.62 0.32 89 1021.9
20260507000008 46 0 0.0 0.0 0.08 0.61 0.31 89 1022.2
20260506235403 46 0 0.0 0.0 0.08 0.60 0.30 89 1022.4
20260506234508 46 0 0.0 0.0 0.06 0.58 0.28 90 1022.0
20260506233608 45 0 0.0 0.0 0.06 0.58 0.28 90 1021.8
20260506232703 44 0 0.0 0.0 0.06 0.58 0.28 89 1021.6
20260506231803 44 0 0.0 0.0 0.06 0.58 0.28 89 1021.8
20260506230908 44 0 0.0 0.0 0.05 0.57 0.27 89 1022.3
20260506230218 44 0 0.0 0.0 0.02 0.54 0.24 89 1022.0
20260506225404 44 0 0.0 0.0 0.02 0.52 0.22 89 1021.8
20260506224508 44 0 0.0 0.0 0.02 0.52 0.22 89 1021.3
20260506223605 43 0 0.0 0.0 0.02 0.52 0.22 89 1020.9
20260506222708 43 0 0.0 0.0 0.04 0.52 0.22 89 1020.9
20260506221804 43 0 0.0 0.0 0.04 0.52 0.22 88 1021.0
20260506220903 43 0 0.0 0.0 0.06 0.52 0.22 88 1021.1
20260506220008 43 0 0.0 0.0 0.06 0.52 0.22 88 1021.2
20260506215403 43 0 0.0 0.0 0.04 0.50 0.20 88 1021.2
20260506214508 43 0 0.0 0.0 0.04 0.50 0.20 88 1020.8
20260506213603 43 0 0.0 0.0 0.04 0.50 0.20 88 1020.6
20260506212703 43 0 0.0 0.0 0.04 0.48 0.18 88 1020.3
20260506211804 43 0 0.0 0.0 0.07 0.48 0.18 88 1020.2
20260506210904 43 0 0.0 0.0 0.07 0.46 0.17 88 1020.1
20260506210004 43 0 0.0 0.0 0.07 0.46 0.17 88 1019.9
20260506205403 43 0 0.0 0.0 0.07 0.46 0.17 88 1019.8
20260506204504 43 0 0.0 0.0 0.06 0.46 0.16 87 1019.6
20260506203604 43 0 0.0 0.0 0.08 0.46 0.16 87 1019.7
20260506202703 43 0 0.0 0.0 0.06 0.44 0.14 87 1020.0
20260506202014 43 0 0.0 0.0 0.04 0.42 0.12 87 1019.9
20260506200905 43 0 0.0 0.0 0.02 0.39 0.09 87 1019.7
20260506200215 43 0 0.0 0.0 0.04 0.39 0.09 87 1019.1
20260506195404 43 0 0.0 0.0 0.05 0.39 0.09 86 1018.9